COSMOS 1275 DEB

Satellite information

Favourite Embed

Satellite Type and Status

DEBRISIN ORBIT

Key statistics

Satellite COSMOS 1275 DEB at a glance.

Uptime

16106

Days in orbit

Revolutions

≈ 14.2

Per day

Orbit

LEO

Low Earth Orbit

Inclination

83.0

Latest

Satellite identification and parameters

Extended collection of information and parameters for COSMOS 1275 DEB.

Object identification

Identified? True

Debris? True

Object name: COSMOS 1275 DEB

International designator: 1981-053EE

Object number (NORAD): 12950

Object ID (CCSDS): 12950

Country: COMMONWEALTH OF INDEPENDENT STATES (CIS)

Current information (Y/N): Y

RCS size: SMALL

Orbital parameters

Period: 101.658 minutes

Inclination: 83.0109 deg

SMA: 7215.294 km

Apoapsis: 873.769 km

Periapsis: 800.548 km

RAAN: 350.3101 deg

Eccentricy: 0.005074

Argument of periapsis: 242.8794 deg

Mean anomaly: 243.2543 deg

Mean motion: 14.1651679 rev/day

Mean motion (dot): 0.00000628 rev/day2

B* drag term: 0.00030356 1/REarth

Two-line elements (TLE)

Creation date: July 8, 2025, 2:27 a.m.

Reference frame: TEME

Reference center: EARTH

Epoch: July 7, 2025, 9:52 p.m. UTC

TLE line 0: 0 COSMOS 1275 DEB

TLE line 1: 1 12950U 81053EE 25188.91118866 .00000628 00000-0 30356-3 0 9994

TLE line 2: 2 12950 83.0109 350.3101 0050740 242.8794 243.2543 14.16516790251972

Live tracking on map

Real-time ground track for satellite COSMOS 1275 DEB.

In-orbit conjunctions

A list of the most updated potential collisions computed for object COSMOS 1275 DEB.

Target Orbit TCA Probability of collision Miss distance Type
FENGYUN 1C DEB SSO 2025-05-16 11:39:11 0.0001257844 76.0 (m) DEBRIS
FENGYUN 1C DEB SSO 2024-11-05 17:40:28 0.0001616587 194.0 (m) DEBRIS

Associated space launch

Navigation satellite providing location information for the Tsiklon-B navigation system

COSMOS 1275 DEB was lifted into orbit during the mission ‘Kosmos-3M | Parus 27’, on board a Kosmos-3M space rocket.

The launch took place on June 4, 1981, 3:41 p.m. from 132/2.

For more information about the launch, click the button.

Launch to space Kosmos-3M | Parus 27
Kosmos-3M | Parus 27

Agency: N/A

Status: Launch Successful

Launch date: June 4, 1981, 3:41 p.m. UTC

Rocket: Kosmos-3M

Launch pad: 132/2

Location: Plesetsk Cosmodrome, Russian Federation

...

Latest news about this satellite

There are no fresh news available about this satellite. Check back as we update our databases every day.


Newsletter sign-up

Weekly statistics, charts and insights to help you stay on top of the space industry.